[[{"header":{"parameterUnit":"m.s-1","parameterCategory":1,"la1":30.2991,"la2":30.254,"lo1":-89.0895,"lo2":-89.0444,"dy":0.0017,"dx":0.0017,"nx":28,"ny":28,"refTime":"2025-08-13T09:00:00:Z","depth":0,"parameterNumber":2,"parameterNumberName":"U-component_of_WINDS"},"data":[0,0,0,0,0,0,0,0,0,0,0,0,0,0,0,0,0,0,0,0,0,0,0,0,0,0,0,0,0,0,0,0,0,0,0,0,0,0,0,0,0,0,0,0,0,0,0,0,0,0,0,0,0,0,0,0,0,0,2.9585,2.9586,0,2.9677,2.9678,2.9679,2.9662,2.966,2.9659,2.9657,2.9755,2.9759,2.9763,0,0,0,0,0,0,0,0,0,0,0,0,0,2.9399,2.9402,2.9585,2.9586,2.9588,2.9677,2.9678,2.968,2.9662,2.966,2.9658,2.9656,2.9754,2.9759,2.9764,0,0,0,0,0,0,0,0,0,0,0,0,0,2.9484,2.9403,2.9585,2.959,2.9591,2.9677,2.9678,2.968,2.9663,2.966,2.9658,2.9655,2.9752,2.9758,2.9764,2.9853,0,0,2.9783,2.9786,0,0,0,0,0,0,0,0,2.9479,2.9491,2.9588,2.9589,2.9591,2.9656,2.9648,2.9738,2.9663,2.9636,2.9657,2.9654,2.9724,2.9733,2.9755,2.9857,2.9861,2.9784,2.9788,2.979,2.9792,0,0,0,0,0,0,0,2.9473,2.9487,2.9622,2.9589,2.9591,2.9588,2.9598,2.9665,2.9693,2.9638,2.9637,2.9648,2.9725,2.9749,2.9758,2.9863,2.9784,2.9789,2.9793,2.9795,3.0043,3.0046,0,0,0,0,0,0,2.9465,2.9482,2.9619,2.9625,2.9528,2.9594,2.9604,2.9637,2.9692,2.9698,2.965,2.9647,2.974,2.975,2.9761,2.9868,2.979,2.9796,2.98,3.004,3.0043,3.0047,0,0,0,0,0,0,2.9461,2.9478,2.9615,2.9553,2.957,2.96,2.9637,2.9641,2.9665,2.9701,2.9706,2.967,2.9738,2.9752,2.983,2.9871,2.9799,2.9805,3.0037,3.0041,3.0045,3.0083,0,0,0,0,0,0,2.9456,2.9476,2.9509,2.9554,2.9574,2.9681,2.964,2.9644,2.9676,2.9672,2.9721,2.9727,2.9738,2.9821,2.9836,2.9879,2.9809,3.0033,3.0039,3.0044,3.0078,3.0088,3.0097,0,0,0,0,0,2.945,2.9517,2.9511,2.9528,2.9615,2.9684,2.9695,2.9705,2.9679,2.9713,2.9736,2.9725,2.9865,2.9829,2.9846,2.9891,3.0031,3.0037,3.0043,3.0074,3.0086,3.0097,0,0,0,0,0,0,2.9477,2.9523,2.9517,2.96,2.9638,2.9681,2.9723,2.9717,2.9764,2.9759,2.9771,2.9782,2.9861,2.9884,2.9843,2.998,2.9944,2.9954,2.9962,2.9974,2.9983,2.9975,2.9815,0,0,0,0,0,2.9493,2.9544,2.9581,2.9651,2.9671,2.9694,2.9724,2.9729,2.9769,2.9785,2.9814,2.9854,2.9907,2.9942,2.9992,3.0082,3.0093,3.0122,3.0131,3.0138,3.0147,3.0197,3.021,3.0067,3.0067,3.0067,0,0,2.9526,2.9557,2.9589,2.9658,2.9688,2.9741,2.9708,2.9765,2.9805,2.9794,2.9869,2.9892,2.9938,3.0022,3.0061,3.0044,3.0189,3.0146,3.0152,3.0157,3.0205,3.0218,3.023,3.0072,3.0071,3.007,0,0,2.9614,2.9642,2.9704,2.9734,2.978,2.9795,2.981,2.9854,2.9868,2.9943,2.9936,2.9985,3.0075,3.0109,3.0138,3.0239,3.0231,3.0256,3.0303,3.0352,3.0363,3.0373,3.0409,3.0422,3.0264,3.0264,3.0264,0,2.9649,2.9728,2.9737,2.9795,2.9826,2.9818,2.9881,2.9911,2.9971,2.9994,2.9974,3.0088,3.0118,3.021,3.0235,3.0259,3.0277,3.025,3.036,3.0371,3.038,3.0415,3.0429,3.0267,3.0267,3.0266,3.0266,0,2.977,2.9825,2.987,2.9927,2.9963,3.0024,3.0043,3.0079,3.0081,3.0099,3.0176,3.0213,3.0271,3.0293,3.0296,3.0386,3.0374,3.0357,3.0321,3.0396,3.0429,3.0443,3.0271,3.027,3.0269,3.0268,0,0,2.9876,2.9938,2.9954,2.998,3.0031,3.0074,3.0135,3.0191,3.0222,3.0265,3.0317,3.0394,3.0379,3.0412,3.0418,3.0461,3.054,3.0439,3.044,3.0456,3.0642,3.0654,3.0669,3.0535,3.0538,3.054,3.0638,0,2.9968,3.0075,3.0085,3.0181,3.0233,3.0226,3.028,3.0317,3.0336,3.0383,3.0405,3.0459,3.0435,3.0455,3.0497,3.0521,3.0577,3.0514,3.0585,3.0587,3.0572,3.0687,3.0699,3.0791,3.0651,3.0653,3.0655,0,3.009,3.0134,3.0235,3.0279,3.0301,3.0349,3.0401,3.0446,3.0489,3.05,3.0537,3.0538,3.0603,3.0565,3.0655,3.0612,3.0641,3.0658,3.0662,3.0668,3.0625,3.0696,3.082,3.0833,3.0675,3.0674,3.0672,0,3.0157,3.0243,3.0315,3.0337,3.039,3.0424,3.0448,3.0488,3.0521,3.0568,3.0589,3.0643,3.0673,3.0715,3.0732,3.0702,3.0821,3.0784,3.0832,3.0832,3.0857,3.0855,3.0987,3.0877,3.0877,3.0876,3.0876,0,3.0259,3.0321,3.0346,3.039,3.0459,3.0471,3.0541,3.0563,3.0599,3.0648,3.0647,3.0693,3.0712,3.0762,3.0775,3.0848,3.0862,3.0873,3.0876,3.0873,3.0871,3.0892,3.0886,3.088,3.0879,3.0879,3.0878,0,3.0345,3.0365,3.0442,3.0486,3.0498,3.0548,3.0586,3.0629,3.0647,3.071,3.0725,3.0755,3.0813,3.0834,3.0906,3.0915,3.0999,3.0997,3.0984,3.0985,3.1032,3.1027,3.1181,3.1202,3.1078,3.108,3.1081,0,3.0409,3.0456,3.0505,3.0537,3.0562,3.0614,3.0648,3.0662,3.0698,3.0751,3.0788,3.0846,3.0893,3.0988,3.1016,3.1072,3.1071,3.1121,3.1079,3.1075,3.1071,3.1068,3.1073,3.1128,3.113,3.1131,3.1132,0,3.0519,3.0526,3.0574,3.0626,3.0667,3.0708,3.0749,3.0776,3.0797,3.0837,3.0896,3.0933,3.1006,3.1064,3.1121,3.1147,3.1143,3.1145,3.1159,3.1156,3.1147,3.1153,3.1005,3.1141,3.114,3.1139,3.1139,3.1138,3.0596,3.0638,3.0679,3.0733,3.0765,3.0803,3.0846,3.087,3.0919,3.0979,3.0985,3.1049,3.1092,3.1168,3.1196,3.1248,3.1234,3.1255,3.126,3.1264,3.1268,3.1139,3.1258,3.1258,3.1258,3.1258,3.1258,0,3.0706,3.0732,3.0782,3.0838,3.0881,3.0873,3.0918,3.0955,3.1011,3.1051,3.1098,3.1167,3.1223,3.1257,3.1314,3.1349,3.1349,3.1363,3.1361,3.1367,3.1277,3.1259,3.1362,3.1362,3.1362,3.1362,3.1362,3.1362,3.0768,3.0839,3.0852,3.0939,3.0965,3.1027,3.1054,3.1089,3.1121,3.1198,3.1245,3.1266,3.1304,3.1363,3.1416,3.1424,3.1445,3.1461,3.1468,3.1384,3.1373,3.1363,3.1346,3.1466,3.1466,3.1554,3.1555,3.1555]},{"header":{"parameterUnit":"m.s-1","parameterCategory":1,"la1":30.2991,"la2":30.254,"lo1":-89.0895,"lo2":-89.0444,"dy":0.0017,"dx":0.0017,"nx":28,"ny":28,"refTime":"2025-08-13T09:00:00:Z","depth":0,"parameterNumber":3,"parameterNumberName":"V-component_of_WINDS"},"data":[0,0,0,0,0,0,0,0,0,0,0,0,0,0,0,0,0,0,0,0,0,0,0,0,0,0,0,0,0,0,0,0,0,0,0,0,0,0,0,0,0,0,0,0,0,0,0,0,0,0,0,0,0,0,0,0,0,0,0.6798,0.6798,0,0.6804,0.6804,0.6804,0.68,0.68,0.68,0.6799,0.6805,0.6805,0.6806,0,0,0,0,0,0,0,0,0,0,0,0,0,0.6783,0.6783,0.6798,0.6798,0.6798,0.6804,0.6804,0.6804,0.68,0.68,0.6799,0.6799,0.6805,0.6805,0.6806,0,0,0,0,0,0,0,0,0,0,0,0,0,0.6789,0.6783,0.6798,0.6797,0.6797,0.6804,0.6804,0.6804,0.68,0.68,0.6799,0.6799,0.6805,0.6805,0.6806,0.6815,0,0,0.6807,0.6808,0,0,0,0,0,0,0,0,0.6789,0.679,0.6797,0.6797,0.6797,0.6801,0.6801,0.6808,0.68,0.6799,0.6799,0.6799,0.6804,0.6805,0.6806,0.6815,0.6815,0.6807,0.6808,0.6808,0.6808,0,0,0,0,0,0,0,0.6788,0.6789,0.68,0.6797,0.6797,0.6796,0.6796,0.6802,0.6803,0.6799,0.6799,0.6799,0.6804,0.6806,0.6806,0.6815,0.6807,0.6808,0.6808,0.6808,0.6831,0.6831,0,0,0,0,0,0,0.6788,0.6789,0.68,0.6801,0.6792,0.6796,0.6797,0.68,0.6803,0.6803,0.68,0.6799,0.6805,0.6806,0.6807,0.6817,0.6808,0.6808,0.6809,0.6831,0.6831,0.6831,0,0,0,0,0,0,0.6788,0.6789,0.68,0.6795,0.6796,0.6797,0.68,0.68,0.6802,0.6803,0.6803,0.6801,0.6805,0.6806,0.6813,0.6817,0.6809,0.6809,0.683,0.6831,0.6831,0.6837,0,0,0,0,0,0,0.6787,0.6789,0.6792,0.6795,0.6796,0.6806,0.68,0.68,0.6803,0.6802,0.6805,0.6805,0.6805,0.6812,0.6813,0.6817,0.6809,0.683,0.683,0.6831,0.6837,0.6838,0.6839,0,0,0,0,0,0.6787,0.6794,0.6793,0.6794,0.6801,0.6806,0.6807,0.6807,0.6803,0.6807,0.6807,0.6805,0.6816,0.6813,0.6814,0.6819,0.683,0.683,0.6831,0.6836,0.6838,0.6839,0,0,0,0,0,0,0.6792,0.6794,0.6793,0.6801,0.6803,0.6806,0.681,0.6808,0.6812,0.6811,0.681,0.6811,0.6818,0.6819,0.6815,0.6827,0.6822,0.6823,0.6826,0.6827,0.6828,0.6828,0.681,0,0,0,0,0,0.6794,0.6798,0.68,0.6807,0.6809,0.6809,0.6811,0.6811,0.6813,0.6814,0.6816,0.6818,0.6822,0.6825,0.6829,0.6837,0.6837,0.6841,0.6842,0.6843,0.6844,0.6848,0.6849,0.6834,0.6834,0.6834,0,0,0.6798,0.68,0.6803,0.6808,0.681,0.6815,0.681,0.6815,0.6818,0.6815,0.6822,0.6823,0.6825,0.6833,0.6836,0.6834,0.6848,0.6844,0.6844,0.6845,0.6849,0.685,0.6852,0.6834,0.6834,0.6834,0,0,0.6808,0.681,0.6816,0.6818,0.6821,0.6822,0.6823,0.6825,0.6826,0.6832,0.683,0.6834,0.6841,0.6843,0.6845,0.6856,0.6853,0.6857,0.6863,0.6867,0.6868,0.6869,0.6873,0.6874,0.6858,0.6858,0.6858,0,0.6813,0.682,0.682,0.6825,0.6827,0.6825,0.6831,0.6832,0.6836,0.6838,0.6835,0.6844,0.6846,0.6854,0.6856,0.6858,0.6859,0.6856,0.6868,0.6869,0.687,0.6874,0.6875,0.6858,0.6858,0.6858,0.6858,0,0.6826,0.6831,0.6836,0.684,0.6843,0.6848,0.6848,0.6851,0.685,0.685,0.6857,0.6859,0.6863,0.6865,0.6864,0.6872,0.6871,0.6868,0.6864,0.6872,0.6875,0.6877,0.6859,0.6858,0.6858,0.6858,0,0,0.684,0.6844,0.6845,0.6847,0.685,0.6854,0.6859,0.6863,0.6865,0.6868,0.6873,0.6879,0.6876,0.6878,0.6877,0.6881,0.6889,0.6878,0.6878,0.688,0.6899,0.6901,0.6903,0.6888,0.6888,0.6888,0.6899,0,0.685,0.686,0.6859,0.6868,0.6873,0.687,0.6875,0.6877,0.6877,0.6881,0.6882,0.6886,0.6882,0.6883,0.6887,0.6888,0.6893,0.6887,0.6892,0.6892,0.6891,0.6904,0.6906,0.6916,0.69,0.69,0.69,0,0.6864,0.6867,0.6877,0.6879,0.6881,0.6885,0.6888,0.6892,0.6894,0.6894,0.6897,0.6895,0.6901,0.6896,0.6903,0.6899,0.6901,0.6901,0.6902,0.6902,0.6897,0.6905,0.6919,0.692,0.6902,0.6902,0.6902,0,0.6873,0.688,0.6886,0.6888,0.689,0.6893,0.6895,0.6897,0.6899,0.6902,0.6904,0.6907,0.6909,0.6912,0.6912,0.6908,0.6919,0.6914,0.6919,0.6919,0.6921,0.6921,0.6936,0.6923,0.6923,0.6923,0.6922,0,0.6884,0.689,0.689,0.6894,0.69,0.69,0.6906,0.6907,0.6909,0.6913,0.6911,0.6914,0.6913,0.6917,0.6917,0.6923,0.6923,0.6924,0.6923,0.6924,0.6924,0.6925,0.6924,0.6923,0.6923,0.6923,0.6923,0,0.6895,0.6896,0.6902,0.6905,0.6905,0.691,0.6911,0.6915,0.6915,0.692,0.6922,0.6922,0.6926,0.6926,0.6931,0.693,0.6938,0.6937,0.6937,0.6937,0.6941,0.6941,0.6957,0.6959,0.6945,0.6945,0.6945,0,0.6903,0.6907,0.691,0.6912,0.6914,0.6918,0.692,0.692,0.6922,0.6925,0.6929,0.6933,0.6936,0.6943,0.6943,0.6947,0.6946,0.6951,0.6946,0.6947,0.6946,0.6946,0.6946,0.6952,0.6952,0.6953,0.6953,0,0.6916,0.6916,0.6919,0.6923,0.6926,0.6929,0.6932,0.6934,0.6933,0.6936,0.6941,0.6943,0.6948,0.6952,0.6955,0.6956,0.6954,0.6954,0.6956,0.6956,0.6956,0.6956,0.6939,0.6954,0.6954,0.6954,0.6954,0.6954,0.6925,0.6929,0.6931,0.6935,0.6937,0.694,0.6943,0.6944,0.6948,0.6952,0.6951,0.6956,0.6958,0.6962,0.6964,0.6967,0.6965,0.6967,0.6968,0.6968,0.6969,0.6955,0.6968,0.6968,0.6968,0.6968,0.6968,0,0.6938,0.6939,0.6943,0.6947,0.695,0.6948,0.6951,0.6954,0.6958,0.696,0.6963,0.6968,0.6972,0.6973,0.6977,0.6979,0.6979,0.698,0.698,0.698,0.697,0.6969,0.6981,0.6981,0.6981,0.6981,0.6981,0.6981,0.6945,0.6951,0.6951,0.6958,0.696,0.6964,0.6966,0.6968,0.697,0.6976,0.6979,0.698,0.6981,0.6985,0.6988,0.6988,0.699,0.6992,0.6992,0.6982,0.6981,0.698,0.6978,0.6992,0.6992,0.7001,0.7002,0.7002]}]]